Regional Weather Roundup
Issued by NWS

Home | Current Version | Previous Version | Graphics & Text | Print | Product List | Glossary On
Versions: 1 2 3 4 5 6 7 8 9 10 11 12 13 14 15 16 17 18 19 20 21 22 23 24 25 26 27 28 29 30 31 32 33 34 35 36 37 38 39 40 41 42 43 44 45 46 47 48 49 50
000
ASUS45 KTFX 221819
RWRMT
MONTANA HOURLY WEATHER ROUNDUP
NATIONAL WEATHER SERVICE GREAT FALLS MT
1219 PM MDT TUE APR 22 2014

NOTE: "FAIR" INDICATES FEW OR NO CLOUDS BELOW 12000 FEET WITH NO
SIGNIFICANT WEATHER AND/OR OBSTRUCTIONS TO VISIBILITY.

* THESE STATIONS ARE NOT UNDER NWS QUALITY CONTROL. THEY DO NOT
   REPORT WEATHER SUCH AS PRECIPITATION OR FOG.

MTZ001>007-043-221900-
WEST OF THE DIVIDE
CITY           SKY/WX    TMP DP  RH WIND       PRES   REMARKS
KALISPELL      CLOUDY    54  34  47 S8        29.65R
MISSOULA       CLOUDY    57  34  42 NW16G28   29.66F
BUTTE          PTSUNNY   61  34  36 SE12G31   29.63F
MULLAN PASS    LGT SNOW  34  34 100 VRB5      29.68S VSB M1/4 WCI  29
* ESSEX        N/A       57  26  30 S5G13      N/A
* LINCOLN      N/A       57  32  39 NW3        N/A
* LOOKOUT PASS N/A       40  37  89 S5         N/A   WCI  36
* PLAINS APT   CLOUDY    55  37  51 CALM      29.70F
* POLSON       N/A       53  33  47 S2G7       N/A
* SEELEY LAKE  N/A       54  31  42 SE3        N/A
* THOMP F APT  CLOUDY    55  39  55 SE9G21     N/A
$$

MTZ008-052>055-221900-
SOUTHWEST MONTANA
CITY           SKY/WX    TMP DP  RH WIND       PRES   REMARKS
BOZEMAN        PTCLDY    70  34  27 S13       29.61F
DILLON         CLOUDY    57  36  46 SE14      29.62F
W YELLOWSTONE  N/A       54  40  59 N3G8       N/A
* THREE FORKS  PTSUNNY   66  39  37 S14G24     N/A
* BOULDER HILL N/A       59  31  35 SW21G30    N/A
* MONIDA PASS  N/A       52  37  57 SE21G31    N/A
* RAYNOLDS PAS N/A       49  29  46 SE22G30    N/A
* WHITEHALL    N/A       66  32  28 NW3G8      N/A
* WISE RIVER   N/A       57  35  44 SE14G23    N/A
$$

MTZ009>010-012-014-046-048-049-054-221900-
EAST SLOPES AND CENTRAL MONTANA
CITY           SKY/WX    TMP DP  RH WIND       PRES   REMARKS
CUT BANK       PTSUNNY   59  27  29 E13       29.57F
GREAT FALLS    PTSUNNY   66  34  31 S13G20    29.58F
HELENA         PTCLDY    63  30  29 VRB3      29.57F
MALMSTROM AFB  PTSUNNY   66  34  31 SE3       29.56F
* CONRAD       PTSUNNY   61  30  31 E8         N/A
* DEARBORN     N/A       64  30  28 S1         N/A
* EAST GLACIER N/A       59  27  29 S7G12      N/A
* MONARCH      N/A       59  26  28 S15G20     N/A
* PENDROY      N/A       61  30  31 S7G12      N/A
* ROGERS PASS  N/A       59  26  28 SE12G18    N/A
* SAINT MARY   N/A       55  29  37 W6         N/A
* SWEET GRASS  N/A       62  27  26 S14G20     N/A
* WHITE SULPH  N/A       63  33  33 S15G21     N/A
$$

MTZ011-013-016-021-035-040-045-047-050-051-221900-
NORTH CENTRAL MONTANA
CITY           SKY/WX    TMP DP  RH WIND       PRES   REMARKS
HAVRE          CLOUDY    66  32  28 E16       29.59F
LEWISTOWN      CLOUDY    66  28  24 VRB3      29.63F
* CHINOOK      CLOUDY    66  30  26 E16G24    29.60F
* FORT BENTON  CLOUDY    70  28  21 E7        29.58F
* CHESTER      N/A       63  25  24 SE7G13     N/A
* DENTON       N/A       70  34  27 SE16       N/A
* GEYSER       N/A       66  34  31 N6G11      N/A
* JUDITH GAP   N/A       57  33  40 S12        N/A
* LOMA         N/A       68  30  24 NE14G19    N/A
$$

MTZ017>020-022>027-061-062-221900-
NORTHEAST MONTANA
CITY           SKY/WX    TMP DP  RH WIND       PRES   REMARKS
GLASGOW        PTSUNNY   66  34  31 SE23G29   29.71F
JORDAN         CLOUDY    64  34  33 SE12      29.68F
SIDNEY         CLOUDY    68  30  24 SE22      29.79F
WOLF POINT     PTSUNNY   68  30  24 E20       29.75F
* BEAVER HILL  N/A       63  30  29 E28G34     N/A
* CIRCLE       N/A       64  38  38 SE9        N/A
* LINDSAY DVD  N/A       58  32  37 E18        N/A
* NAVAJO       N/A       63  29  28 SE20G27    N/A
* SACO         N/A       66  33  29 SE17G22    N/A
$$

MTZ028>042-056>058-221900-
SOUTHCENTRAL AND SOUTHEAST MONTANA
CITY           SKY/WX    TMP DP  RH WIND       PRES   REMARKS
BAKER          PTCLDY    63  34  34 SE24G32   29.79F
BILLINGS       CLOUDY    57  36  46 CALM      29.68F
LIVINGSTON     PTSUNNY   63  36  37 CALM      29.66F
MILES CITY     LGT RAIN  70  37  30 SE15      29.70F
* LAUREL APT   CLOUDY    57  34  42 NE7        N/A
* ROUNDUP APT  PTSUNNY   57  30  36 S7         N/A
* HYSHAM       N/A       68  37  32 S7G17      N/A
* LAME DEER    N/A       64  35  34 S10G17     N/A
* REED POINT   N/A       55  35  47 E4         N/A
* ROSCOE HILL  N/A       59  29  32 E12        N/A
$$

REGIONAL REPORTS...DAKOTAS
CITY           SKY/WX    TMP DP  RH WIND       PRES   REMARKS
WILLISTON      PTSUNNY   66  28  24 SE22G31   29.84F
DICKINSON      CLOUDY    66  28  24 SE24G33   29.82F
CROSBY         SUNNY     64  30  28 SE23G32   29.86F
TIOGA          SUNNY     64  25  23 SE24G35   29.90F
WATFORD CITY   SUNNY     66  28  24 SE26G33   29.81F
BISMARCK       PTCLDY    70  28  21 SE15G24   29.94F
GRAND FORKS    SUNNY     55  36  49 VRB7      30.08F
FARGO          SUNNY     59  34  39 S9        30.08F
BUFFALO SD     PTCLDY    64  34  33 SE21      29.74F
RAPID CITY     PTSUNNY   68  39  35 SE14      29.76F
$$

REGIONAL REPORTS...WYOMING/IDAHO/WASHINGTON
CITY           SKY/WX    TMP DP  RH WIND       PRES   REMARKS
GILLETTE       CLOUDY    61  36  39 SE12      29.76F
SHERIDAN       CLOUDY    64  36  35 VRB3      29.73F
CODY           PTCLDY    66  34  31 SE18G23   29.71F
YELLOWSTONE LA PTCLDY    45  36  71 CALM      29.85F
SALMON         CLOUDY    54  30  40 W9        29.61R
MULLAN PASS    LGT SNOW  34  34 100 VRB5      29.68S VSB M1/4 WCI  29
SAND POINT     LGT RAIN  45  45 100 CALM      29.68R
SPOKANE        LGT RAIN  45  41  86 SW21      29.70R VSB 3
$$

REGIONAL REPORTS...ALBERTA
CITY           SKY/WX    TMP DP  RH WIND       PRES   REMARKS
CALGARY        CLOUDY    55  28  35 E6        29.58F
LETHBRIDGE     CLOUDY    64  25  23 SE12G18   29.56F
MEDICINE HAT   PTSUNNY   72  25  17 SE7       29.58F
EDMONTON       PTSUNNY   63  28  27 E15G24    29.60F
WATERTON GATE  N/A       61  28  29 N3         N/A
CARDSTON       N/A       64  28  26 SE13G21    N/A
MILK RIVER     N/A       64  25  23 SE15       N/A
$$

REGIONAL REPORTS...SASKATCHEWAN
CITY           SKY/WX    TMP DP  RH WIND       PRES   REMARKS
SWIFT CURRENT  SUNNY     68  25  20 SE23G32   29.68F
MOOSE JAW      PTSUNNY   66  32  28 SE22      29.81F
REGINA         PTCLDY    63  34  34 SE25G33   29.85F
VAL MARIE      N/A       70  25  18 SE23G31    N/A
ASSINIBOIA     N/A       63  28  27 SE17G25    N/A
CORONACH       N/A       64  28  26 SE21G26    N/A

$$




USA.gov is the U.S. government's official web portal to all federal, state and local government web resources and services.